TimeCDT,TemperatureF,Dew PointF,Humidity,Sea Level PressureIn,VisibilityMPH,Wind Direction,Wind SpeedMPH,Gust SpeedMPH,PrecipitationIn,Events,Conditions,WindDirDegrees,DateUTC
12:15 AM,44.6,39.2,81,30.16,10.0,Calm,Calm,-,N/A,,Clear,0,2012-09-27 05:15:00
12:35 AM,44.6,39.2,81,30.16,10.0,Calm,Calm,-,N/A,,Scattered Clouds,0,2012-09-27 05:35:00
12:55 AM,42.8,37.4,81,30.17,10.0,Calm,Calm,-,N/A,,Scattered Clouds,0,2012-09-27 05:55:00
1:15 AM,42.8,37.4,81,30.17,10.0,Calm,Calm,-,N/A,,Scattered Clouds,0,2012-09-27 06:15:00
1:35 AM,42.8,37.4,81,30.17,10.0,Calm,Calm,-,N/A,,Scattered Clouds,0,2012-09-27 06:35:00
1:55 AM,42.8,37.4,81,30.18,10.0,Calm,Calm,-,N/A,,Scattered Clouds,0,2012-09-27 06:55:00
2:15 AM,42.8,37.4,81,30.17,10.0,Calm,Calm,-,N/A,,Clear,0,2012-09-27 07:15:00
2:35 AM,41.0,37.4,87,30.16,10.0,Calm,Calm,-,N/A,,Scattered Clouds,0,2012-09-27 07:35:00
2:55 AM,41.0,37.4,87,30.16,10.0,Calm,Calm,-,N/A,,Scattered Clouds,0,2012-09-27 07:55:00
3:15 AM,39.2,35.6,87,30.17,10.0,Calm,Calm,-,N/A,,Clear,0,2012-09-27 08:15:00
3:35 AM,37.4,33.8,87,30.18,10.0,Calm,Calm,-,N/A,,Scattered Clouds,0,2012-09-27 08:35:00
3:55 AM,39.2,33.8,81,30.18,10.0,Calm,Calm,-,N/A,,Scattered Clouds,0,2012-09-27 08:55:00
4:15 AM,41.0,35.6,81,30.18,7.0,Calm,Calm,-,N/A,,Scattered Clouds,0,2012-09-27 09:15:00
4:35 AM,39.2,33.8,81,30.18,10.0,Calm,Calm,-,N/A,,Scattered Clouds,0,2012-09-27 09:35:00
4:55 AM,39.2,35.6,87,30.18,10.0,Calm,Calm,-,N/A,,Scattered Clouds,0,2012-09-27 09:55:00
5:15 AM,39.2,33.8,81,30.18,10.0,Calm,Calm,-,N/A,,Clear,0,2012-09-27 10:15:00
5:35 AM,35.6,32.0,87,30.20,10.0,Calm,Calm,-,N/A,,Scattered Clouds,0,2012-09-27 10:35:00
5:55 AM,35.6,32.0,87,30.21,10.0,Calm,Calm,-,N/A,,Scattered Clouds,0,2012-09-27 10:55:00
6:15 AM,37.4,33.8,87,30.21,7.0,Calm,Calm,-,N/A,,Scattered Clouds,0,2012-09-27 11:15:00
6:35 AM,37.4,33.8,87,30.20,10.0,Calm,Calm,-,N/A,,Clear,0,2012-09-27 11:35:00
6:55 AM,37.4,32.0,81,30.20,10.0,Calm,Calm,-,N/A,,Scattered Clouds,0,2012-09-27 11:55:00
7:15 AM,37.4,33.8,87,30.21,10.0,Calm,Calm,-,N/A,,Scattered Clouds,0,2012-09-27 12:15:00
7:35 AM,37.4,33.8,87,30.20,10.0,Calm,Calm,-,N/A,,Clear,0,2012-09-27 12:35:00
7:55 AM,39.2,35.6,87,30.20,4.0,Calm,Calm,-,N/A,,Clear,0,2012-09-27 12:55:00
8:15 AM,41.0,37.4,87,30.21,10.0,Calm,Calm,-,N/A,,Clear,0,2012-09-27 13:15:00
8:35 AM,42.8,37.4,81,30.22,10.0,Calm,Calm,-,N/A,,Clear,0,2012-09-27 13:35:00
8:55 AM,44.6,39.2,81,30.21,10.0,Calm,Calm,-,N/A,,Clear,0,2012-09-27 13:55:00
9:15 AM,48.2,39.2,71,30.19,10.0,NE,3.5,-,N/A,,Clear,50,2012-09-27 14:15:00
9:35 AM,50.0,42.8,76,30.20,10.0,NNE,3.5,-,N/A,,Clear,30,2012-09-27 14:35:00
9:55 AM,53.6,42.8,67,30.21,10.0,Calm,Calm,-,N/A,,Clear,0,2012-09-27 14:55:00
10:15 AM,57.2,44.6,63,30.22,10.0,Calm,Calm,-,N/A,,Clear,0,2012-09-27 15:15:00
10:35 AM,60.8,44.6,55,30.23,10.0,Calm,Calm,-,N/A,,Clear,0,2012-09-27 15:35:00
10:55 AM,62.6,44.6,52,30.23,10.0,Calm,Calm,-,N/A,,Clear,0,2012-09-27 15:55:00
11:15 AM,66.2,42.8,43,30.23,10.0,Calm,Calm,-,N/A,,Clear,0,2012-09-27 16:15:00
11:35 AM,66.2,42.8,43,30.23,10.0,Calm,Calm,-,N/A,,Clear,0,2012-09-27 16:35:00
11:55 AM,69.8,37.4,31,30.21,10.0,Calm,Calm,-,N/A,,Clear,0,2012-09-27 16:55:00
12:15 PM,73.4,33.8,23,30.21,10.0,North,3.5,-,N/A,,Clear,350,2012-09-27 17:15:00
12:35 PM,75.2,28.4,18,30.20,10.0,Calm,Calm,-,N/A,,Clear,0,2012-09-27 17:35:00
1:15 PM,75.2,8.6,8,30.19,10.0,Calm,Calm,-,N/A,,Clear,0,2012-09-27 18:15:00
1:35 PM,77.0,19.4,12,30.18,10.0,Calm,Calm,-,N/A,,Clear,0,2012-09-27 18:35:00
1:55 PM,77.0,17.6,11,30.17,10.0,NNE,3.5,-,N/A,,Clear,20,2012-09-27 18:55:00
2:15 PM,77.0,15.8,10,30.16,10.0,Calm,Calm,-,N/A,,Clear,0,2012-09-27 19:15:00
2:35 PM,78.8,14.0,9,30.15,10.0,Calm,Calm,-,N/A,,Clear,0,2012-09-27 19:35:00
2:55 PM,78.8,14.0,9,30.15,10.0,Calm,Calm,-,N/A,,Clear,0,2012-09-27 19:55:00
3:15 PM,78.8,3.2,5,30.14,10.0,ENE,4.6,-,N/A,,Clear,70,2012-09-27 20:15:00
3:35 PM,78.8,-2.2,4,30.14,10.0,Calm,Calm,-,N/A,,Scattered Clouds,0,2012-09-27 20:35:00
3:55 PM,80.6,8.6,6,30.14,10.0,SE,3.5,-,N/A,,Clear,140,2012-09-27 20:55:00
4:15 PM,78.8,6.8,6,30.14,10.0,Calm,Calm,-,N/A,,Clear,0,2012-09-27 21:15:00
4:35 PM,78.8,3.2,5,30.14,10.0,SE,5.8,-,N/A,,Clear,130,2012-09-27 21:35:00
4:55 PM,78.8,-0.4,5,30.13,10.0,Calm,Calm,-,N/A,,Clear,0,2012-09-27 21:55:00
5:35 PM,78.8,-14.8,4,30.13,10.0,Calm,Calm,-,N/A,,Clear,0,2012-09-27 22:35:00
5:55 PM,78.8,-7.6,4,30.13,10.0,Calm,Calm,-,N/A,,Clear,0,2012-09-27 22:55:00
6:15 PM,78.8,-11.2,4,30.13,10.0,Calm,Calm,-,N/A,,Clear,0,2012-09-27 23:15:00
6:35 PM,75.2,17.6,11,30.13,10.0,Calm,Calm,-,N/A,,Clear,0,2012-09-27 23:35:00
6:55 PM,73.4,17.6,12,30.13,10.0,Calm,Calm,-,N/A,,Clear,0,2012-09-27 23:55:00
7:15 PM,68.0,33.8,28,30.13,10.0,Calm,Calm,-,N/A,,Clear,0,2012-09-28 00:15:00
7:35 PM,60.8,37.4,42,30.13,10.0,ESE,3.5,-,N/A,,Scattered Clouds,110,2012-09-28 00:35:00
7:55 PM,57.2,39.2,51,30.14,10.0,Calm,Calm,-,N/A,,Scattered Clouds,0,2012-09-28 00:55:00
8:15 PM,57.2,42.8,59,30.14,10.0,Calm,Calm,-,N/A,,Scattered Clouds,0,2012-09-28 01:15:00
8:35 PM,57.2,42.8,59,30.14,7.0,Calm,Calm,-,N/A,,Clear,0,2012-09-28 01:35:00
8:55 PM,53.6,42.8,67,30.15,10.0,Calm,Calm,-,N/A,,Scattered Clouds,0,2012-09-28 01:55:00
9:35 PM,51.8,39.2,62,30.16,10.0,Calm,Calm,-,N/A,,Scattered Clouds,0,2012-09-28 02:35:00
9:55 PM,48.2,39.2,71,30.16,10.0,Calm,Calm,-,N/A,,Clear,0,2012-09-28 02:55:00
10:15 PM,48.2,41.0,76,30.16,10.0,Calm,Calm,-,N/A,,Scattered Clouds,0,2012-09-28 03:15:00
10:35 PM,48.2,41.0,76,30.16,10.0,Calm,Calm,-,N/A,,Clear,0,2012-09-28 03:35:00
10:55 PM,46.4,39.2,76,30.17,10.0,Calm,Calm,-,N/A,,Clear,0,2012-09-28 03:55:00
11:15 PM,48.2,41.0,76,30.17,10.0,Calm,Calm,-,N/A,,Scattered Clouds,0,2012-09-28 04:15:00
11:35 PM,48.2,41.0,76,30.17,7.0,Calm,Calm,-,N/A,,Scattered Clouds,0,2012-09-28 04:35:00
11:55 PM,46.4,39.2,76,30.17,10.0,Calm,Calm,-,N/A,,Scattered Clouds,0,2012-09-28 04:55:00